Wetbulb
76.18 75.43 73.79 71.06 63.72 62.33 52.35 55.80 61.13 59.97 60.24 65.64 66.92 65.27 63.18 64.35 60.44 56.21 70.29 71.58 73.67 74.12 76.37 77.49 78.93 79.23 78.59 79.08 78.76 78.05 77.15 76.65 76.55 76.73 76.23 76.31 75.82 76.26 76.10 76.17 76.28 76.22 76.42 75.95 76.15 76.26 76.20 75.40 75.16
73.91 73.55 72.14 68.41 60.43 48.16 50.68 58.41 58.52 61.17 63.16 65.18 66.24 65.91 64.56 63.41 68.77 69.39 69.43 72.10 73.49 73.81 74.05 76.21 78.56 79.00 78.46 78.76 78.53 78.12 77.40 76.62 76.96 76.89 76.44 76.40 76.10 76.65 76.36 76.58 76.47 76.16 76.47 76.41 76.22 76.21 75.69 75.52 75.35
73.83 73.82 68.39 64.02 58.19 49.14 51.26 58.45 59.29 62.21 65.91 65.18 63.83 66.16 65.69 64.28 69.31 70.08 71.84 72.18 72.45 72.19 73.44 75.66 78.67 78.50 78.23 78.40 78.59 78.26 77.89 77.32 77.22 76.92 76.74 76.27 76.34 76.12 76.62 76.26 76.07 76.46 76.22 76.24 76.25 75.80 75.02 76.00 75.78
72.67 71.05 69.46 60.72 52.11 55.19 55.53 57.95 61.27 62.13 65.03 66.01 65.57 63.19 68.23 70.99 70.10 71.95 72.98 72.57 70.67 72.69 74.32 77.65 78.47 77.46 77.61 77.83 78.40 78.60 78.24 78.05 77.30 76.92 76.44 76.33 76.16 75.97 76.27 76.33 76.79 76.34 76.25 76.13 76.04 75.30 74.83 75.35 75.24
72.87 67.02 61.26 59.54 53.88 57.56 58.35 61.57 62.66 60.86 64.07 65.05 66.04 63.82 65.13 70.11 71.73 72.78 73.18 73.27 72.74 73.38 74.85 76.39 78.40 78.50 78.21 77.65 77.87 77.80 77.70 77.89 77.24 77.06 77.13 76.73 76.59 76.36 76.17 76.03 76.08 76.71 76.32 76.07 75.60 75.36 75.49 75.57 75.34
66.30 65.25 58.77 55.43 56.00 58.66 59.60 61.29 62.63 62.11 64.11 65.50 65.23 64.97 64.46 70.13 70.26 70.59 72.30 73.62 73.72 73.09 74.82 75.95 78.02 78.61 77.96 77.55 77.86 77.81 77.49 77.32 77.41 76.81 76.31 76.36 76.50 76.38 76.11 76.09 76.12 76.21 76.65 75.95 76.30 75.66 75.82 76.03 75.85
65.76 63.52 58.27 56.94 56.59 57.71 59.09 60.17 59.06 60.87 63.02 64.56 67.81 62.99 64.74 67.82 70.19 70.82 71.97 72.82 73.39 73.08 73.22 74.79 75.74 76.51 77.54 77.20 77.06 77.25 77.18 77.00 77.13 76.95 76.54 76.49 76.28 76.17 76.06 75.94 76.24 76.10 76.20 76.26 76.03 75.76 76.32 76.02 75.99
68.20 60.36 58.62 56.96 56.85 56.53 61.04 60.77 63.97 62.48 62.67 67.95 68.91 62.69 61.38 67.76 70.90 70.92 72.71 73.17 73.79 73.58 73.64 73.52 74.24 74.54 74.46 75.02 77.49 77.18 77.36 76.97 76.84 76.58 76.63 76.74 76.53 76.78 76.34 76.97 76.94 76.30 76.42 76.17 75.98 76.15 75.83 76.24 75.91
68.03 57.62 56.02 58.21 58.51 58.91 61.94 61.73 64.55 66.09 64.62 65.99 67.82 67.31 68.69 70.33 70.74 69.35 69.66 71.85 72.81 73.48 73.91 74.46 74.09 74.20 74.06 74.35 75.85 77.85 77.26 76.98 76.72 76.40 76.91 76.42 73.60 73.77 74.75 76.15 76.46 76.47 76.28 76.30 75.87 76.09 76.62 76.30 75.65
62.63 53.88 56.91 60.65 60.71 60.09 63.30 63.70 62.35 61.95 62.11 64.84 66.52 69.38 70.29 70.17 69.29 68.33 68.30 67.40 71.22 71.96 72.72 73.91 74.16 74.51 74.71 75.41 74.49 74.49 74.57 74.17 73.82 74.09 73.84 73.39 73.23 72.55 74.23 75.73 76.64 76.84 76.77 76.61 76.49 77.01 76.70 75.98 72.73
60.58 56.60 59.89 60.11 59.68 62.19 61.99 64.15 65.17 62.03 60.74 62.81 64.77 66.66 68.53 68.75 68.76 69.02 69.02 68.74 68.67 71.66 72.64 73.71 74.30 74.72 74.57 74.14 74.77 74.16 73.89 73.46 73.41 74.03 74.79 73.81 73.40 72.57 73.85 73.54 74.60 73.74 76.29 74.03 75.55 75.23 74.52 74.33 73.12
56.82 58.04 58.85 58.57 59.73 58.77 61.23 65.00 64.25 63.79 63.37 66.17 67.83 67.95 68.27 68.15 68.53 68.98 68.93 69.35 69.47 69.72 72.30 73.35 74.19 74.15 74.33 74.15 74.49 74.18 73.52 73.45 73.06 73.44 72.02 73.59 71.24 71.01 71.13 72.80 72.68 72.82 72.82 72.82 72.95 72.91 72.67 71.77 72.61
55.03 56.50 58.31 59.01 58.70 58.52 60.54 59.05 60.72 63.02 66.55 68.02 68.34 68.32 68.16 68.38 68.77 69.85 70.18 70.52 70.44 69.78 71.45 72.92 73.70 73.39 73.23 73.31 73.92 73.78 72.68 73.57 73.67 72.16 69.49 73.24 70.98 70.92 71.51 71.61 72.14 72.64 72.91 72.10 72.13 71.67 72.12 71.90 72.41
56.19 57.07 57.48 57.78 58.70 59.52 58.35 58.84 58.97 62.71 67.80 67.34 67.39 66.66 68.00 68.39 69.07 69.81 69.68 69.72 70.33 70.89 71.14 74.06 73.92 73.76 74.34 73.65 73.97 73.53 73.66 73.73 73.08 72.37 68.04 70.34 72.44 71.06 70.30 70.83 71.31 71.65 72.15 72.66 71.92 71.46 71.27 71.30 72.07
55.87 52.91 55.67 56.28 57.40 57.43 59.82 57.82 58.50 62.85 66.92 66.21 66.55 66.73 67.43 68.14 69.30 69.12 69.83 69.42 70.94 71.39 73.05 73.15 73.99 74.57 74.39 73.78 74.22 73.90 73.89 73.90 72.99 72.30 71.30 69.68 70.79 71.18 70.71 70.75 70.40 71.20 72.43 72.34 71.99 71.93 72.09 71.59 72.53
51.47 51.25 48.22 55.09 56.44 58.25 58.64 52.84 60.41 62.18 61.43 64.82 66.00 66.86 66.97 67.47 68.42 69.53 70.60 70.86 71.41 71.68 73.01 74.00 75.46 74.63 74.82 74.97 74.57 73.52 73.17 72.41 73.03 73.16 72.87 70.72 70.46 70.36 69.18 70.25 70.45 71.33 72.76 71.51 71.78 71.30 70.50 70.67 70.83
48.86 45.61 48.44 51.89 56.86 60.34 59.38 55.64 60.89 61.88 61.92 63.54 64.92 65.79 67.19 67.33 67.87 69.17 71.19 71.81 72.27 72.30 73.81 73.47 74.55 74.85 75.09 75.91 74.44 72.86 70.98 69.36 70.83 72.88 73.51 72.40 70.60 70.18 69.55 70.25 70.33 71.46 71.55 71.99 71.94 71.69 70.67 69.45 69.69
44.88 46.07 48.63 50.07 55.33 58.15 57.01 56.20 59.36 60.91 61.80 62.73 63.29 65.53 66.25 67.11 67.92 69.53 70.71 72.36 73.05 73.57 74.22 74.13 74.65 74.93 75.73 76.15 73.76 71.95 70.73 67.55 71.15 72.11 72.91 73.83 71.84 71.37 70.75 70.50 70.24 70.77 71.24 71.59 71.54 71.03 71.19 70.08 69.42
50.20 48.71 48.30 50.96 54.10 53.33 54.19 55.03 55.18 59.49 59.53 60.01 63.35 65.07 65.30 66.55 68.60 70.17 70.61 71.58 73.49 74.31 74.47 74.57 73.55 74.96 76.14 74.60 72.02 69.76 66.14 67.57 70.73 73.43 73.93 74.41 73.21 71.91 70.88 70.30 69.80 69.93 69.99 69.16 71.01 70.94 69.83 69.55 70.66
49.81 48.39 48.04 50.86 54.07 51.09 50.71 50.82 53.01 54.04 55.57 56.38 61.62 65.20 65.72 66.18 67.36 69.42 69.69 70.81 73.22 73.77 74.39 74.72 74.99 75.95 75.62 74.28 71.38 71.00 70.33 70.89 72.09 72.63 72.98 74.28 73.58 72.13 70.90 70.39 70.25 69.52 70.14 70.04 69.21 68.09 68.18 69.19 69.93
47.93 45.58 47.43 48.18 51.43 50.53 49.60 48.04 50.28 54.02 56.38 56.92 58.53 66.19 66.94 66.53 66.80 68.01 68.93 69.88 72.98 73.47 75.08 74.54 74.89 75.79 76.16 73.87 70.05 69.23 69.29 68.80 70.97 71.60 70.93 72.66 73.78 72.60 71.35 70.55 70.12 70.43 69.94 69.20 68.09 68.00 67.91 66.60 68.31
43.20 50.26 50.30 50.05 47.06 41.56 48.53 40.04 47.10 52.14 54.08 56.96 57.83 61.90 66.32 67.29 68.12 68.44 68.64 69.31 71.85 74.44 75.51 74.69 76.39 77.25 75.59 74.29 70.63 68.85 67.58 67.86 70.95 70.74 71.89 71.81 73.87 72.68 72.34 71.72 70.68 69.99 69.24 68.11 67.73 68.76 67.73 67.51 65.57
47.57 51.18 49.53 49.46 44.86 42.02 45.49 40.45 44.89 49.11 51.51 55.75 57.62 60.69 65.46 67.93 68.98 68.55 69.00 69.65 72.05 74.52 76.04 75.77 76.92 75.33 75.53 75.27 72.29 70.93 69.95 71.48 70.79 72.27 71.66 71.61 72.27 73.39 73.26 71.98 71.37 70.19 69.33 68.61 68.72 69.58 69.31 68.70 68.56
52.94 49.45 47.78 46.05 42.41 37.57 43.12 43.25 44.52 46.52 52.70 55.27 58.74 60.88 61.52 62.59 66.24 69.37 69.93 70.40 72.97 75.17 76.11 75.38 72.26 70.36 71.17 74.66 74.07 73.09 72.04 70.56 70.32 69.60 69.80 70.72 70.45 70.90 72.04 73.04 72.15 71.55 70.64 70.41 70.23 69.55 70.33 69.15 68.52
49.55 43.96 36.85 36.05 36.24 37.01 44.49 42.97 46.62 50.72 56.42 57.13 57.25 59.26 61.48 62.46 66.25 69.07 69.48 69.72 73.03 74.69 74.40 71.07 70.19 68.76 69.61 69.94 70.34 72.38 71.85 70.57 70.33 70.51 69.59 69.91 69.80 69.30 68.65 70.01 70.28 71.21 70.93 70.24 71.03 70.25 69.80 69.73 69.58
46.82 43.46 38.25 33.63 35.02 40.60 46.22 41.86 47.67 54.75 58.15 58.73 59.05 59.08 61.53 62.81 67.41 69.85 70.35 73.26 74.06 73.67 71.05 69.78 67.87 68.01 69.01 70.38 70.66 71.79 70.60 72.37 72.18 71.38 70.94 70.68 69.06 69.57 69.68 69.82 70.91 70.81 70.85 70.78 69.38 69.32 69.51 69.53 68.81
47.14 43.01 45.79 39.96 40.73 38.62 42.05 46.37 53.97 55.86 55.86 56.14 59.84 63.05 63.70 64.63 69.61 70.48 72.87 72.53 71.62 69.92 69.60 69.49 68.32 69.39 70.85 71.57 72.36 72.78 73.79 72.37 71.56 71.96 71.36 70.29 69.93 69.76 69.38 69.36 69.15 70.79 70.39 68.87 68.63 68.16 67.74 68.26 68.62
48.40 49.76 40.98 40.19 35.07 34.55 41.39 45.01 48.29 54.93 56.74 60.50 63.16 63.28 64.40 70.67 71.30 72.62 72.77 71.47 70.87 70.02 69.65 69.25 69.51 71.39 71.18 71.87 72.20 72.74 71.97 72.10 72.51 72.01 70.18 69.57 69.28 68.57 67.92 68.03 68.85 69.23 69.06 68.37 68.44 68.03 67.85 67.58 67.55
46.88 45.16 42.99 42.43 41.76 37.09 36.67 43.91 52.94 57.95 61.39 61.14 63.07 64.88 64.84 70.28 71.57 72.22 72.89 73.02 72.40 71.45 70.42 69.33 69.23 70.45 70.78 70.26 71.20 72.46 72.69 72.40 71.15 70.89 70.36 69.16 69.12 68.26 67.54 67.64 67.88 67.89 67.40 67.40 66.43 67.39 67.65 66.98 66.36
51.18 48.25 45.71 40.73 38.79 42.11 41.16 45.02 55.01 56.43 63.11 63.20 64.32 66.12 66.86 67.51 69.31 70.50 71.23 71.27 71.48 70.98 70.76 69.90 69.62 70.35 70.54 69.15 71.81 71.99 72.32 71.62 69.95 69.45 70.02 70.14 69.30 68.82 67.97 67.98 67.75 67.65 67.92 68.12 65.95 66.16 67.80 66.47 66.56
MSLP
1009.90 1010.46 1010.93 1010.55 1010.44 1008.66 1006.30 1005.09 1003.96 1003.45 1003.53 1003.63 1004.26 1004.84 1005.86 1006.06 1007.08 1009.31 1009.71 1010.36 1010.94 1011.80 1012.34 1012.69 1012.83 1012.92 1013.10 1013.28 1013.60 1013.87 1014.06 1014.23 1014.47 1014.70 1014.81 1015.02 1015.26 1015.40 1015.53 1015.62 1015.76 1015.93 1015.98 1016.18 1016.34 1016.38 1016.53 1016.78 1016.85
1009.60 1009.61 1009.92 1009.27 1008.99 1007.07 1005.39 1004.16 1003.58 1002.92 1003.10 1003.53 1004.63 1005.30 1005.79 1006.47 1006.72 1008.22 1009.58 1010.28 1010.72 1011.67 1012.37 1012.72 1012.94 1013.15 1013.35 1013.49 1013.74 1013.98 1014.21 1014.41 1014.51 1014.69 1014.95 1015.14 1015.26 1015.37 1015.58 1015.72 1015.83 1016.04 1016.12 1016.33 1016.40 1016.49 1016.76 1016.90 1016.98
1009.09 1009.22 1009.31 1008.21 1006.89 1005.50 1004.27 1003.30 1002.86 1002.76 1003.03 1003.66 1004.58 1005.18 1005.84 1006.65 1006.88 1007.89 1009.02 1009.98 1010.49 1011.25 1012.05 1012.57 1012.81 1013.10 1013.33 1013.48 1013.73 1013.99 1014.20 1014.41 1014.61 1014.85 1015.03 1015.16 1015.26 1015.41 1015.57 1015.78 1015.91 1016.09 1016.29 1016.44 1016.48 1016.65 1016.92 1017.00 1017.03
1008.73 1009.27 1008.35 1007.23 1005.26 1003.97 1002.95 1002.71 1002.56 1002.63 1003.14 1004.11 1004.83 1005.67 1006.37 1006.32 1006.80 1007.65 1008.78 1009.27 1010.08 1010.96 1011.41 1012.07 1012.48 1012.83 1013.15 1013.44 1013.65 1013.91 1014.15 1014.36 1014.62 1014.87 1015.03 1015.19 1015.33 1015.51 1015.62 1015.80 1015.94 1016.09 1016.26 1016.46 1016.56 1016.72 1016.95 1017.11 1017.19
1009.22 1010.78 1008.53 1006.19 1004.02 1002.84 1002.16 1002.10 1002.41 1003.02 1003.49 1003.96 1005.14 1006.35 1007.02 1006.99 1006.95 1007.69 1008.15 1008.86 1009.79 1010.97 1011.49 1011.92 1012.44 1012.95 1013.25 1013.49 1013.65 1013.86 1014.09 1014.33 1014.54 1014.71 1014.91 1015.13 1015.33 1015.49 1015.67 1015.83 1015.98 1016.04 1016.24 1016.44 1016.58 1016.71 1016.91 1017.13 1017.29
1010.02 1010.85 1008.95 1005.64 1003.24 1002.18 1001.72 1001.48 1002.06 1002.54 1003.19 1004.12 1005.12 1006.41 1007.29 1007.34 1007.40 1007.65 1008.20 1009.20 1009.93 1010.97 1011.58 1012.13 1012.29 1012.86 1013.32 1013.57 1013.78 1013.97 1014.09 1014.25 1014.39 1014.61 1014.86 1015.09 1015.24 1015.42 1015.65 1015.82 1015.95 1016.14 1016.30 1016.45 1016.62 1016.73 1016.89 1017.03 1017.27
1008.75 1009.12 1007.41 1004.54 1003.00 1001.78 1001.43 1001.32 1002.19 1002.66 1003.15 1003.66 1004.75 1006.42 1007.38 1007.52 1007.60 1007.69 1008.18 1008.96 1010.05 1010.78 1011.47 1012.10 1012.42 1012.83 1013.23 1013.61 1013.86 1014.06 1014.20 1014.28 1014.39 1014.52 1014.71 1014.96 1015.15 1015.30 1015.56 1015.78 1015.94 1016.14 1016.31 1016.45 1016.56 1016.75 1016.85 1017.04 1017.23
1005.32 1006.41 1005.20 1004.00 1003.03 1001.95 1001.30 1001.66 1002.07 1002.61 1003.30 1003.34 1004.12 1005.74 1006.93 1007.25 1007.47 1007.59 1008.32 1009.10 1010.21 1011.01 1011.55 1011.96 1012.34 1012.60 1013.08 1013.42 1013.63 1013.99 1014.30 1014.44 1014.55 1014.66 1014.70 1014.78 1014.93 1015.12 1015.33 1015.69 1015.93 1016.08 1016.27 1016.43 1016.60 1016.73 1016.84 1016.97 1017.17
1003.60 1004.53 1003.66 1002.92 1002.17 1001.47 1001.50 1002.29 1002.93 1002.79 1003.05 1003.42 1003.49 1004.49 1005.48 1006.62 1007.43 1007.93 1008.77 1009.69 1010.22 1010.86 1011.30 1011.72 1012.06 1012.28 1012.76 1013.18 1013.37 1013.45 1013.62 1014.08 1014.40 1014.42 1014.50 1014.64 1014.79 1014.94 1015.22 1015.38 1015.70 1015.92 1016.10 1016.29 1016.47 1016.62 1016.82 1016.95 1017.06
1003.33 1002.78 1001.99 1000.52 1000.40 1000.30 1000.52 1001.32 1003.13 1002.92 1002.83 1004.06 1004.52 1004.94 1005.80 1006.63 1007.36 1008.07 1008.72 1009.42 1010.14 1010.59 1010.88 1010.97 1011.49 1011.79 1012.14 1012.44 1013.02 1013.47 1013.60 1013.64 1013.83 1014.18 1014.46 1014.59 1014.68 1014.69 1014.93 1015.20 1015.36 1015.54 1015.83 1016.07 1016.30 1016.51 1016.67 1016.81 1017.02
1001.83 1001.60 1000.38 999.81 999.35 999.49 1000.26 1001.07 1002.33 1002.64 1003.06 1003.46 1004.30 1005.03 1005.71 1006.50 1007.24 1007.94 1008.46 1008.88 1009.25 1009.58 1010.16 1010.78 1011.20 1011.34 1011.74 1012.02 1012.63 1012.95 1013.35 1013.54 1013.89 1013.95 1014.18 1014.29 1014.50 1014.49 1014.48 1014.86 1015.11 1015.42 1015.71 1015.98 1016.15 1016.34 1016.44 1016.56 1016.82
1001.54 1000.32 999.80 999.13 998.76 998.70 999.52 1000.38 1001.38 1001.04 1001.30 1001.91 1003.43 1004.32 1005.41 1006.25 1007.02 1007.42 1008.00 1008.33 1008.54 1009.04 1009.74 1010.36 1010.73 1011.02 1011.42 1012.02 1012.56 1012.58 1012.82 1013.13 1013.45 1013.85 1014.06 1014.25 1014.50 1014.56 1014.59 1014.86 1015.18 1015.46 1015.53 1015.87 1016.02 1016.19 1016.25 1016.41 1016.52
1001.12 1000.36 999.81 999.03 998.59 998.37 998.40 999.00 999.51 1000.83 1000.17 1001.59 1002.98 1004.06 1004.96 1005.81 1006.60 1006.97 1007.22 1007.51 1007.95 1008.59 1009.21 1009.83 1010.39 1010.89 1011.30 1011.69 1011.66 1011.93 1012.47 1012.68 1012.86 1013.54 1014.09 1013.98 1014.23 1014.51 1014.36 1014.65 1014.80 1015.15 1015.31 1015.56 1015.73 1015.89 1016.13 1016.19 1016.33
1001.10 1000.55 999.95 999.18 998.63 998.26 998.40 998.50 998.83 999.14 1000.13 1002.13 1002.54 1003.28 1004.39 1005.14 1005.63 1006.23 1006.55 1007.09 1007.55 1008.07 1008.63 1009.29 1010.01 1010.53 1010.76 1011.36 1011.88 1012.30 1012.34 1012.65 1012.90 1013.30 1013.56 1013.70 1014.10 1014.33 1014.34 1014.56 1014.60 1014.72 1014.90 1015.17 1015.35 1015.56 1015.84 1016.01 1015.93
1001.64 1001.42 1000.26 999.36 998.58 998.27 998.04 998.35 998.72 998.87 999.18 1000.80 1002.09 1002.83 1003.73 1004.69 1004.98 1005.21 1005.69 1006.41 1006.97 1007.67 1008.25 1009.07 1009.63 1010.17 1010.46 1011.02 1011.55 1012.05 1012.21 1012.73 1012.90 1012.99 1013.21 1013.62 1013.94 1014.10 1014.26 1014.57 1014.68 1014.61 1014.63 1014.78 1015.05 1015.19 1015.29 1015.64 1015.71
1002.52 1001.91 1001.07 999.16 998.52 998.07 997.94 998.64 998.55 998.44 999.20 1000.74 1001.46 1002.21 1002.80 1003.59 1004.25 1004.60 1004.88 1005.68 1006.63 1007.30 1007.99 1008.87 1009.40 1009.90 1010.39 1011.11 1011.93 1011.99 1012.50 1012.67 1012.37 1012.66 1012.84 1013.16 1013.48 1013.78 1014.30 1014.47 1014.49 1014.34 1014.49 1014.66 1015.12 1015.35 1015.54 1015.72 1015.83
1003.09 1002.48 1001.22 999.35 997.88 997.70 997.60 998.20 998.09 998.30 999.07 1000.18 1000.27 1001.32 1001.78 1002.60 1003.23 1003.73 1004.24 1004.97 1005.95 1006.76 1007.81 1008.69 1009.16 1009.68 1010.32 1011.10 1011.42 1011.82 1011.93 1012.03 1012.19 1012.48 1012.45 1012.69 1013.06 1013.44 1013.82 1014.10 1014.08 1014.08 1014.33 1014.68 1015.03 1015.29 1015.53 1015.77 1015.85
1003.19 1002.24 1000.99 999.75 998.34 997.33 997.82 997.88 997.91 997.82 997.84 998.47 999.40 1000.42 1000.74 1001.53 1002.05 1002.49 1003.39 1004.26 1005.22 1006.26 1007.35 1008.21 1008.86 1009.47 1010.17 1010.66 1011.26 1011.87 1011.79 1011.85 1011.83 1011.93 1011.99 1012.33 1012.69 1013.00 1013.39 1013.65 1013.78 1013.84 1014.33 1014.56 1014.78 1015.10 1015.36 1015.47 1015.63
1002.45 1001.76 1000.87 999.47 998.29 998.29 998.17 998.15 998.01 997.67 997.46 997.78 998.63 999.43 1000.01 1000.27 1001.11 1001.85 1002.60 1003.56 1004.70 1005.83 1006.94 1007.74 1008.45 1009.21 1009.88 1010.56 1011.46 1012.00 1012.11 1012.11 1011.91 1011.79 1011.48 1011.86 1012.35 1012.69 1012.96 1013.48 1013.79 1013.76 1014.20 1014.52 1014.66 1014.93 1015.23 1015.43 1015.43
1001.66 1001.29 1000.40 999.40 998.50 998.18 998.23 998.23 997.67 997.30 997.08 996.73 997.10 998.11 998.96 999.94 1000.85 1001.52 1002.24 1003.27 1004.10 1005.20 1006.23 1007.15 1007.92 1008.78 1009.59 1010.18 1010.79 1011.16 1011.49 1011.37 1011.41 1011.29 1011.10 1011.40 1011.91 1012.42 1012.65 1013.21 1013.52 1013.80 1014.08 1014.48 1014.78 1015.00 1015.33 1015.44 1015.32
1000.52 1000.37 1000.04 999.61 999.06 998.74 998.88 998.71 998.10 997.30 996.68 996.28 996.18 996.91 997.66 998.84 1000.06 1001.01 1001.75 1002.66 1003.78 1004.83 1005.71 1006.50 1007.49 1008.37 1009.35 1010.05 1010.56 1011.14 1011.39 1011.39 1011.15 1011.24 1011.23 1011.21 1011.44 1012.06 1012.36 1012.72 1013.33 1013.61 1013.91 1014.29 1014.56 1014.89 1015.25 1015.45 1015.31
999.73 999.57 999.67 999.80 1000.11 1000.29 999.59 999.73 999.09 997.84 997.09 996.42 995.65 996.03 997.15 998.39 999.56 1000.45 1001.29 1002.53 1003.27 1004.39 1005.50 1006.11 1006.91 1007.89 1008.69 1009.63 1010.43 1010.90 1011.09 1011.20 1010.85 1010.89 1010.92 1011.09 1011.21 1011.78 1012.02 1012.27 1012.75 1013.46 1013.81 1014.14 1014.34 1014.53 1014.82 1015.09 1015.31
998.74 998.91 999.58 1000.05 1000.69 1000.91 1000.44 1000.41 999.05 997.99 997.50 996.61 996.45 996.42 996.87 997.99 998.95 999.42 1000.47 1001.64 1002.87 1004.10 1005.24 1006.16 1006.91 1007.69 1008.35 1009.21 1010.02 1010.59 1010.65 1010.69 1010.52 1010.44 1010.61 1010.97 1011.23 1011.22 1011.51 1011.80 1012.41 1013.08 1013.55 1013.80 1014.12 1014.31 1014.50 1014.65 1014.74
998.08 998.99 999.78 1000.62 1001.58 1001.84 1001.10 1000.82 999.34 998.31 997.62 996.86 996.39 996.95 997.27 998.04 998.68 999.07 1000.25 1001.73 1002.96 1004.16 1005.33 1006.12 1006.85 1007.86 1008.21 1008.82 1009.51 1010.07 1010.24 1010.31 1010.49 1010.43 1010.58 1010.89 1011.10 1011.19 1011.38 1011.52 1012.06 1012.48 1013.06 1013.34 1013.63 1013.90 1014.04 1014.17 1014.39
997.94 999.45 1000.89 1002.03 1002.73 1002.49 1000.90 1000.67 998.49 997.04 996.50 996.31 996.20 996.34 996.78 997.16 998.01 999.55 1000.87 1002.09 1003.28 1004.46 1005.56 1006.45 1007.33 1007.98 1008.27 1008.86 1009.31 1009.48 1009.76 1009.98 1010.20 1010.35 1010.62 1010.86 1011.13 1011.22 1011.36 1011.49 1011.87 1012.27 1012.58 1012.79 1013.22 1013.48 1013.57 1013.77 1014.01
998.06 999.17 1001.00 1002.32 1003.05 1001.99 1000.80 999.90 997.54 995.84 995.49 995.52 995.69 996.00 996.77 997.33 998.15 999.78 1001.00 1002.26 1003.42 1004.69 1005.71 1006.77 1007.46 1007.88 1008.36 1008.53 1008.83 1008.90 1009.21 1009.66 1009.83 1009.92 1010.37 1010.57 1010.98 1011.03 1011.27 1011.47 1011.75 1012.04 1012.44 1012.75 1012.95 1013.08 1013.22 1013.33 1013.41
997.76 998.63 999.89 1001.62 1002.04 1002.19 1000.84 998.89 996.49 995.41 996.04 995.82 996.78 997.26 997.66 998.03 998.73 1000.05 1001.59 1002.81 1003.79 1004.80 1005.83 1006.67 1007.40 1007.93 1008.19 1008.30 1008.45 1008.74 1008.46 1009.04 1009.51 1009.74 1010.03 1010.27 1010.67 1010.81 1011.28 1011.48 1011.80 1011.97 1012.19 1012.54 1012.65 1012.80 1012.79 1012.97 1013.13
996.84 997.92 999.69 1000.87 1002.01 1002.24 1000.88 999.48 997.91 996.78 996.34 996.81 997.42 998.09 998.39 998.74 999.82 1000.92 1002.08 1003.21 1004.15 1004.97 1005.93 1006.72 1007.25 1007.72 1007.83 1007.91 1007.99 1008.24 1008.56 1008.37 1009.16 1009.68 1010.11 1010.16 1010.65 1010.87 1011.23 1011.23 1011.60 1011.81 1012.03 1012.19 1012.39 1012.53 1012.72 1012.85 1012.98
996.45 997.40 998.77 1000.05 1001.18 1001.89 1001.27 1000.31 998.66 997.93 997.47 997.84 998.04 998.41 998.78 999.50 1000.25 1001.26 1002.21 1003.04 1003.98 1004.82 1005.69 1006.58 1006.95 1007.33 1007.64 1007.89 1008.07 1007.89 1007.95 1008.47 1009.02 1009.56 1009.89 1010.17 1010.55 1010.93 1011.15 1011.24 1011.33 1011.54 1011.82 1012.14 1012.40 1012.45 1012.36 1012.65 1012.77
995.29 996.26 997.79 999.77 1000.74 1001.00 1000.88 1000.27 998.92 998.35 998.22 998.35 998.69 998.86 998.86 999.49 1000.07 1001.17 1002.07 1002.83 1003.65 1004.59 1005.48 1006.28 1006.78 1007.23 1007.61 1007.82 1008.24 1008.37 1008.30 1008.26 1008.91 1009.28 1009.66 1009.90 1010.34 1010.74 1010.97 1011.16 1011.26 1011.27 1011.44 1011.78 1012.06 1012.29 1012.28 1012.49 1012.72
Wind_Speed
12 8 4 3 4 3 9 12 10 8 8 18 20 13 14 9 6 5 13 17 20 15 11 12 14 14 14 14 14 15 15 14 13 12 11 10 9 9 9 9 10 8 10 10 10 10 12 11 11
7 10 5 4 3 4 3 8 9 1 14 16 19 19 18 20 16 19 15 17 20 16 10 9 13 13 14 14 14 13 13 14 13 12 10 9 9 8 9 9 10 9 9 10 9 11 10 9 10
5 10 3 4 5 4 3 10 8 13 15 16 8 12 6 8 12 9 23 23 20 17 13 12 16 14 14 15 13 13 12 12 11 10 9 7 8 8 8 8 9 10 9 9 9 11 9 10 10
3 2 5 1 12 4 9 10 13 10 17 19 15 8 13 11 7 16 24 22 19 17 17 17 17 17 15 14 12 12 12 11 11 9 8 8 7 6 7 8 10 10 9 9 9 10 10 9 8
3 4 5 3 8 6 11 15 15 9 15 17 17 11 12 13 13 20 16 18 19 15 14 15 18 15 14 13 13 13 12 11 11 10 10 9 8 8 7 8 8 8 9 8 8 9 11 9 7
8 5 4 6 10 4 10 12 16 12 12 14 17 11 6 8 6 9 15 19 18 16 13 12 18 16 15 13 13 12 12 12 12 10 9 9 10 9 7 8 8 7 9 9 8 8 10 9 7
7 5 6 8 2 6 7 11 9 13 9 10 16 8 7 9 8 8 13 16 17 16 14 11 11 13 15 14 12 11 11 11 10 10 10 10 10 8 8 8 8 9 8 9 9 9 9 9 7
8 5 3 7 8 6 7 17 15 11 5 5 16 7 7 10 9 8 11 10 18 15 13 11 9 9 7 7 13 11 9 9 9 8 8 10 10 10 9 9 8 10 10 9 9 9 9 9 8
15 2 5 11 18 5 3 8 6 4 8 4 1 9 17 16 10 6 10 14 13 13 14 13 11 11 9 7 9 12 14 11 11 10 12 9 4 6 8 9 12 12 11 11 10 10 10 9 10
8 3 7 11 6 7 15 22 9 3 7 4 12 17 18 17 12 10 7 9 11 15 14 14 12 11 11 10 8 6 7 5 6 6 6 4 6 5 8 11 15 15 14 12 12 10 12 10 4
9 7 13 7 7 10 10 13 6 9 3 8 19 19 18 16 12 12 9 9 9 15 12 13 13 11 11 7 6 5 4 4 4 7 5 6 5 4 4 4 5 4 11 4 7 6 4 6 4
9 12 6 8 5 4 12 10 8 13 12 18 20 21 18 17 13 14 11 13 9 10 13 15 14 12 11 6 6 7 6 5 5 5 4 4 3 4 3 3 4 4 4 5 5 4 5 5 6
10 13 13 10 11 5 6 3 7 14 12 18 22 21 19 16 12 12 12 15 12 10 12 14 13 10 7 9 7 6 5 5 5 5 4 2 2 3 3 3 5 5 4 5 7 5 5 6 5
14 18 17 12 12 15 6 8 3 9 23 19 24 22 18 17 17 13 12 15 14 13 9 14 15 9 8 7 6 4 3 4 3 4 5 5 3 2 2 2 3 4 4 5 5 5 5 4 4
14 15 15 13 12 13 16 3 3 15 25 25 21 20 19 16 17 15 14 14 15 13 11 13 12 8 7 6 6 5 4 3 3 4 5 4 4 4 3 3 3 4 4 5 4 2 3 2 3
12 10 8 18 16 13 5 4 8 9 10 19 19 20 19 18 18 14 14 12 14 13 13 13 10 9 8 6 3 5 3 3 3 4 4 7 6 6 4 4 3 4 4 4 2 3 2 3 3
6 11 16 22 18 7 7 9 10 7 8 14 17 18 19 18 15 14 15 14 15 14 14 12 11 12 10 8 6 7 8 5 3 3 4 6 6 6 5 4 4 5 4 4 3 3 3 2 2
9 9 14 14 14 6 9 10 10 11 11 22 19 19 19 19 18 19 16 15 15 14 16 13 11 12 9 8 5 4 4 4 3 5 4 6 5 6 5 4 4 4 4 4 3 3 3 3 3
17 18 17 14 14 3 5 5 6 10 9 14 18 20 19 21 15 19 18 16 16 16 16 14 11 10 10 5 5 3 3 3 4 6 6 8 7 7 6 4 4 4 5 5 5 3 4 3 3
19 18 18 14 10 6 8 9 8 9 7 7 14 21 22 18 18 18 18 16 18 19 18 15 11 9 9 6 3 3 4 3 4 4 5 8 9 8 6 5 4 5 4 5 3 2 1 2 3
14 8 8 7 11 10 6 8 7 10 7 8 7 22 22 23 21 18 18 18 17 19 19 17 11 10 9 8 5 3 2 3 2 2 3 5 9 9 7 7 5 5 4 5 5 5 5 3 2
10 11 14 7 8 5 4 7 8 8 11 9 10 11 18 19 18 16 18 16 19 18 16 15 12 11 8 11 7 5 4 4 4 5 4 4 7 8 8 8 7 6 4 5 5 4 4 3 4
10 7 6 6 7 4 9 2 10 8 6 6 5 12 16 17 23 23 21 19 17 18 16 10 11 9 9 8 6 5 5 5 3 3 7 6 6 9 9 9 8 7 5 5 6 5 6 4 4
8 7 5 3 1 5 10 5 10 7 8 4 15 10 9 8 12 19 16 15 16 15 14 11 10 7 8 7 6 6 5 3 1 2 3 4 3 4 6 8 7 7 6 7 6 6 5 5 3
7 4 2 5 5 8 10 5 16 11 10 10 9 9 8 9 12 15 17 15 15 17 13 10 10 8 7 6 4 6 5 4 4 4 4 5 3 2 4 5 5 3 0 4 4 5 5 5 4
7 9 8 8 6 15 4 8 19 16 11 9 12 11 9 8 13 17 18 14 17 15 13 13 10 8 7 7 7 5 5 4 3 4 4 4 4 4 5 6 6 6 5 5 5 3 3 3 3
8 7 8 5 9 4 6 11 8 13 9 3 8 10 9 9 18 20 17 15 14 13 12 12 9 7 7 6 6 2 5 5 2 4 4 4 4 4 6 6 6 6 5 6 3 2 1 3 3
12 9 3 3 5 6 8 4 4 4 10 15 13 9 11 16 17 17 16 16 12 12 11 10 9 8 7 8 8 5 6 5 5 5 5 7 6 6 6 7 6 5 5 5 5 3 3 4 2
6 6 5 4 5 7 4 4 3 7 13 10 10 9 10 16 16 14 14 14 16 13 12 10 9 8 7 3 3 6 5 6 6 6 6 7 6 6 6 6 6 6 6 5 4 4 4 4 3
9 13 12 6 9 4 6 7 8 7 10 10 9 8 9 11 13 14 13 11 13 13 11 10 7 7 6 7 6 4 5 6 7 6 7 7 7 6 6 6 6 4 6 6 5 2 5 5 5
Wind_Direction
167 180 214 229 287 223 65 58 50 57 72 68 64 73 61 117 149 167 119 119 123 125 130 128 127 127 133 131 130 133 134 133 134 129 119 113 111 105 102 104 98 103 110 111 122 119 111 109 108
183 199 206 270 267 78 62 104 97 41 94 84 85 84 77 80 94 118 111 134 125 131 131 129 125 125 127 127 130 132 135 136 134 129 128 126 119 113 116 118 111 107 121 120 125 112 114 118 118
233 242 265 218 237 90 93 108 108 74 101 86 80 78 93 112 116 118 124 139 138 137 132 140 132 130 130 130 133 134 134 135 133 135 135 128 125 129 126 122 122 122 117 127 127 120 124 122 133
182 248 268 344 93 62 109 88 74 88 95 103 104 68 53 116 100 127 132 142 137 136 139 142 140 139 137 134 130 134 139 139 139 140 130 123 129 137 136 128 133 136 129 134 130 129 131 136 139
78 346 279 247 128 149 101 101 96 77 95 106 105 101 89 87 118 130 138 131 128 136 136 141 139 140 142 142 143 144 148 149 148 146 136 133 137 138 140 143 145 139 141 134 141 142 139 144 150
77 325 297 261 98 79 112 124 117 130 127 116 114 111 102 123 123 129 130 125 127 129 133 145 141 144 146 149 149 150 153 152 151 149 147 152 147 138 145 153 154 151 148 151 162 154 150 149 167
139 185 256 309 53 110 96 94 90 79 78 122 127 121 151 147 162 139 140 133 128 132 138 139 144 149 154 156 160 160 162 164 165 169 165 161 159 162 160 157 160 160 162 166 161 159 151 159 175
213 146 312 350 314 68 91 92 90 96 108 121 133 147 175 160 162 129 146 111 129 133 140 152 152 145 153 161 168 170 177 179 180 187 188 184 186 184 187 173 175 167 169 167 166 165 167 172 186
266 279 249 190 233 138 181 75 346 155 109 20 111 134 138 148 137 125 114 123 132 143 152 155 161 160 163 168 178 181 184 184 196 202 201 201 189 200 197 184 187 184 175 176 177 176 180 181 193
192 176 266 279 163 121 159 144 156 148 118 79 97 114 137 144 148 146 141 142 154 155 166 163 163 164 166 176 177 179 184 189 189 194 207 205 216 209 192 197 197 187 183 181 183 185 183 190 195
280 218 273 278 122 173 117 148 139 147 152 174 147 145 152 153 162 156 164 169 174 167 162 161 162 169 175 182 167 176 185 192 189 204 194 203 225 243 162 165 187 169 186 187 186 187 195 190 196
292 273 282 294 194 170 150 130 184 165 197 178 158 154 159 164 172 166 180 171 178 161 172 165 171 175 177 157 172 193 189 176 185 166 187 188 182 216 194 168 169 177 174 187 182 187 202 214 208
319 319 324 326 330 305 144 188 203 215 161 163 149 156 167 169 174 177 183 174 174 171 158 171 167 175 162 165 185 183 185 175 172 148 170 158 176 210 204 184 169 185 190 186 188 185 205 215 216
302 312 309 309 306 294 245 201 232 117 124 152 156 160 172 176 180 180 184 179 172 170 166 154 166 162 156 159 151 171 167 181 169 150 184 176 174 175 255 186 199 170 186 180 184 181 200 208 209
308 311 307 291 259 258 258 211 108 147 157 159 165 164 172 183 185 182 191 177 166 170 156 156 152 150 155 159 142 134 102 164 156 179 182 211 238 212 204 233 173 187 192 180 168 182 174 231 239
298 314 303 280 275 278 114 265 188 194 145 160 164 172 176 183 185 188 184 159 163 166 149 155 157 160 156 150 111 65 76 317 236 238 176 194 196 216 225 223 207 190 177 182 171 180 199 222 247
284 263 268 279 274 201 141 224 216 197 166 148 178 181 180 182 176 182 180 165 160 159 147 155 160 168 161 147 162 139 172 218 226 245 224 180 186 204 210 214 208 190 174 166 180 189 170 202 241
254 254 263 264 294 181 203 246 155 198 166 195 192 187 182 178 181 177 172 165 155 155 153 162 167 166 154 163 144 141 210 230 213 231 218 180 175 187 195 206 197 177 170 173 175 175 195 185 198
252 261 268 277 291 352 266 255 223 224 217 218 190 187 183 185 175 173 169 166 152 152 151 164 165 162 154 164 135 141 209 243 257 241 207 172 170 184 189 182 187 183 175 190 174 163 182 229 191
252 257 267 279 293 302 299 290 278 280 250 255 180 181 185 169 170 174 171 168 158 156 158 165 163 145 151 156 134 151 168 212 223 240 179 171 168 173 174 179 182 193 160 161 168 156 160 221 180
261 253 274 277 306 314 317 317 304 288 271 274 253 186 179 169 174 175 176 168 156 160 161 171 157 155 144 131 127 92 27 319 221 235 184 174 161 169 175 168 176 160 155 174 177 180 180 195 256
235 244 265 250 274 256 270 273 291 267 259 244 263 166 171 168 171 171 175 164 163 162 162 172 150 150 158 139 142 164 182 193 219 190 194 180 162 174 179 168 159 165 169 186 195 191 200 168 226
227 250 273 296 298 352 303 4 263 282 296 33 83 83 151 146 171 185 179 164 160 155 159 149 133 132 136 145 160 187 211 210 234 189 187 178 180 178 182 170 164 173 182 192 194 196 205 196 194
221 257 255 317 323 311 257 201 270 258 191 152 122 118 152 179 176 190 163 145 142 149 145 132 129 117 121 147 180 219 239 235 183 115 130 155 188 176 176 170 176 175 179 188 192 204 221 212 213
216 131 343 330 330 244 244 227 249 252 180 171 162 140 148 141 150 154 146 148 142 143 133 125 111 118 127 138 190 217 200 221 220 162 164 159 173 191 179 138 139 137 183 189 176 197 201 204 196
227 157 161 211 224 255 285 230 252 232 184 159 169 160 147 119 124 143 147 134 137 131 126 119 120 140 168 171 194 199 226 210 174 157 184 170 179 168 158 144 157 146 158 225 178 173 186 197 207
251 238 211 208 241 285 257 291 320 87 100 32 95 99 98 100 129 141 127 131 130 129 129 131 137 151 176 166 150 178 146 148 213 186 171 164 141 126 151 149 155 174 188 181 163 159 186 193 199
177 193 271 305 194 269 284 290 245 20 123 129 111 109 102 105 114 122 127 131 132 139 136 136 147 170 167 152 173 174 187 144 162 169 154 131 141 132 154 145 162 164 182 181 170 174 212 177 206
238 207 222 153 161 198 256 316 236 86 123 119 121 134 124 127 129 132 138 143 147 149 151 151 164 168 156 138 320 166 163 177 152 155 142 139 127 148 156 166 167 166 177 169 155 175 182 142 163
225 202 179 179 274 216 166 233 284 138 144 131 136 130 126 128 136 137 137 134 133 146 152 149 166 162 163 161 197 204 191 156 151 146 150 145 152 166 177 187 186 177 144 144 161 122 109 121 122